Flag for Dominican Republic Weather past 2 weeks in Puerto Plata, Dominican Republic

Now
75 °F

Passing clouds.


Feels Like: 75 °F
Forecast: 80 / 88 °F
Wind: No wind

Location: Puerto Plata International

Current Time: May 6, 2015 at 4:33:42 AM

Latest Report: May 6, 2015 at 2:00 AM


Visibility: N/A

Pressure: 30.04 "Hg

Humidity: 89%

Dew point: 72 °F

Location of Puerto PlataLocation

Historic Weather in Puerto Plata — Graph

°F

Puerto Plata temperature yesterday

Maximum temperature yesterday: 91 °F (at 12:00 PM)
Minimum temperature yesterday: 77 °F (at 5:00 AM)
Average temperature yesterday: 84 °F

Past Weeks' High & Low Weather Summary

 TemperatureHumidityPressure
High97 °F (Apr 30, 1:00 PM)100% (Apr 23, 7:00 AM)30.09 "Hg (Apr 23, 7:00 AM)
Low68 °F (Apr 23, 7:00 AM)39% (May 1, 1:00 PM)29.74 "Hg (Apr 28, 4:00 PM)
Average83 °F73%29.91 "Hg
* Reported Apr 21 2:00 AM — May 6 2:00 AM, Puerto Plata, Weather by CustomWeather, © 2015

Note: Actual official high and low records may vary slightly from our data, if they occured in-between our weather recording intervals... More about our weather records

Advertising

Puerto Plata weather history for previous 24 hours

 ConditionsComfort  
Time TempWeatherWind HumidityBarometerVisibility
2:00 AM
Wed, May 6
75 °FPassing clouds.No wind89%30.04 "HgN/A
11:00 PM
Tue, May 5
79 °FPassing clouds.12 mph84%30.04 "HgN/A
8:00 PM81 °FPassing clouds.15 mph84%30.01 "HgN/A
7:00 PM82 °FScattered clouds.18 mph79%29.98 "HgN/A
6:00 PM84 °FPassing clouds.14 mph74%29.98 "HgN/A
5:00 PM86 °FPassing clouds.23 mph70%29.98 "HgN/A
4:00 PM88 °FScattered clouds.29 mph62%29.98 "HgN/A
3:00 PM90 °FScattered clouds.22 mph59%30.01 "HgN/A
2:00 PM90 °FScattered clouds.17 mph63%30.01 "HgN/A
1:00 PM91 °FScattered clouds.14 mph59%30.01 "HgN/A
12:00 PM91 °FPassing clouds.17 mph52%30.07 "HgN/A
11:00 AM90 °FScattered clouds.12 mph59%30.09 "HgN/A
10:00 AM88 °FScattered clouds.17 mph59%30.09 "HgN/A
9:00 AM84 °FScattered clouds.8 mph66%30.09 "HgN/A
8:00 AM79 °FScattered clouds.No wind79%30.07 "HgN/A
7:00 AM77 °FScattered clouds.No wind79%30.04 "HgN/A
5:00 AM77 °FPassing clouds.No wind79%30.01 "HgN/A
Weather by CustomWeather, © 2015

See weather overviewHow to use our weather pages